#timestamp,LO_Frequency,Hit 
1499194815.9,286047018.5,N
1499194835.7,286047019.8,N
1499194855.5,286047018.9,N
1499194875.3,286047020.3,N
1499194895.2,286047020.7,N
1499194915.0,286047020.8,N
1499194915.9,286047020.8,N
1499194935.7,286047019.3,N
1499194955.6,286047020.2,N
1499194975.4,286047020.1,N
1499194995.2,286047017.7,N
1499195015.1,286047019.6,N
1499195016.0,286047019.6,N
1499195035.8,286047020.0,N
1499195055.6,286047021.7,N
1499195075.5,286047020.1,N
1499195095.3,286047018.1,N
1499195115.1,286047017.9,N
1499195135.9,286047018.3,N
1499195155.7,286047020.4,N
1499195175.5,286047019.7,N
1499195195.8,286047019.9,N
1499195215.6,286047018.1,N
1499195235.4,286047017.9,N
1499195255.3,286047020.2,N
1499195275.1,286047017.3,N
1499195276.0,286047017.3,N
1499195295.8,286047019.4,N
1499195315.7,286047019.4,N
1499195335.5,286047019.7,N
1499195355.3,286047021.8,N
1499195375.1,286047021.9,N
1499195395.9,286047017.4,N
1499195415.7,286047020.7,N
1499195435.5,286047022.8,N
1499195455.4,286047025.2,N
1499195475.2,286047023.3,N
1499195495.0,286047022.1,N
1499195495.9,286047022.1,N
1499195515.8,286047025.1,N
1499195535.6,286047024.2,N
1499195555.4,286047024.1,N
1499195575.3,286047020.8,N
1499195595.1,286047021.5,N
1499195596.0,286047021.5,N
1499195615.8,286047023.0,N
1499195635.7,286047020.6,N
1499195655.5,286047020.8,N
1499195675.3,286047020.7,N
1499195695.1,286047021.2,N
1499195715.9,286047020.9,N
1499195735.7,286047024.5,N
1499195755.5,286047022.2,N
1499195775.4,286047024.9,N
1499195795.2,286047026.8,N
1499195815.0,286047026.8,N
1499195815.9,286047026.8,N
1499195835.8,286047024.4,N
1499195855.6,286047022.4,N
1499195875.4,286047022.7,N
1499195895.3,286047022.6,N
1499195915.1,286047020.7,N
1499195916.0,286047020.7,N
1499195935.8,286047022.0,N
1499195955.7,286047020.7,N
1499195975.5,286047022.5,N
1499195995.3,286047021.2,N
1499196015.2,286047022.7,N
1499196035.9,286047025.1,N
1499196055.7,286047022.3,N
1499196075.5,286047026.3,N
1499196095.4,286047024.7,N
1499196115.2,286047023.3,N
1499196135.0,286047022.2,N
1499196135.9,286047022.2,N
1499196155.8,286047025.0,N
1499196175.6,286047023.5,N
1499196195.4,286047023.2,N
1499196215.3,286047022.4,N
1499196235.1,286047022.8,N
1499196236.0,286047022.8,N
1499196255.8,286047022.5,N
1499196275.7,286047025.2,N
1499196295.5,286047022.6,N
1499196315.3,286047025.2,N
1499196335.2,286047025.1,N
1499196355.9,286047024.8,N
1499196375.7,286047026.8,N
1499196395.6,286047024.9,N
1499196415.4,286047022.2,N
1499196435.2,286047024.5,N
1499196455.0,286047026.8,N
1499196456.0,286047026.8,N
1499196475.8,286047023.8,N
1499196495.6,286047024.3,N
1499196515.4,286047022.5,N
1499196535.3,286047022.3,N
1499196555.1,286047026.5,N
1499196575.8,286047024.1,N
1499196595.7,286047026.4,N
1499196615.5,286047026.0,N
1499196635.3,286047025.8,N
1499196655.2,286047025.9,N
1499196675.9,286047025.8,N
1499196695.7,286047027.7,N
1499196715.6,286047027.9,N
1499196735.4,286047025.4,N
1499196755.2,286047025.3,N
1499196775.1,286047027.9,N
1499196776.0,286047027.9,N
1499196795.8,286047027.0,N
1499196815.6,286047027.2,N
1499196835.4,286047029.2,N
1499196855.3,286047029.3,N
1499196875.1,286047027.0,N
1499196895.8,286047025.3,N
1499196915.7,286047026.9,N
1499196935.5,286047028.1,N
1499196955.3,286047025.5,N
1499196975.2,286047028.0,N
1499196995.9,286047027.0,N
1499197015.7,286047029.2,N
1499197035.6,286047031.2,N
1499197055.4,286047029.4,N
1499197075.2,286047027.2,N
1499197095.1,286047026.9,N
1499197096.0,286047026.9,N
1499197115.8,286047029.0,N
1499197135.6,286047031.6,N
1499197155.5,286047031.5,N
1499197175.3,286047030.7,N
1499197195.1,286047031.3,N
1499197215.8,286047028.8,N
1499197235.7,286047028.7,N
1499197255.5,286047033.2,N
1499197275.3,286047030.9,N
1499197295.2,286047033.1,N
1499197315.0,286047032.3,N
1499197315.9,286047032.3,N
1499197335.7,286047033.1,N
1499197355.6,286047030.8,N
1499197375.4,286047030.7,N
1499197395.2,286047032.1,N
1499197415.1,286047031.7,N
1499197416.0,286047031.7,N
1499197435.8,286047034.5,N
1499197455.6,286047032.2,N
1499197475.5,286047031.7,N
1499197495.3,286047034.0,N
1499197515.1,286047034.5,N
1499197535.9,286047033.8,N
1499197555.7,286047034.3,N
1499197575.5,286047036.4,N
1499197595.4,286047035.5,N
1499197615.2,286047036.4,N
1499197635.0,286047034.5,N
1499197635.9,286047034.5,N
1499197655.8,286047036.2,N
1499197675.6,286047035.9,N
1499197695.4,286047033.8,N
1499197715.3,286047036.3,N
1499197735.1,286047035.2,N
1499197736.0,286047035.2,N
1499197755.8,286047037.6,N
1499197775.7,286047035.1,N
1499197795.5,286047035.2,N
1499197815.3,286047037.8,N
1499197835.1,286047037.2,N
1499197855.9,286047035.8,N
1499197875.7,286047038.0,N
1499197895.5,286047037.5,N
1499197915.4,286047033.4,N
1499197935.2,286047035.2,N
1499197955.0,286047037.3,N
1499197955.9,286047037.3,N
1499197975.8,286047036.8,N
1499197995.6,286047037.6,N
1499198015.4,286047036.9,N
1499198035.3,286047037.3,N
1499198055.1,286047037.6,N
1499198056.0,286047037.6,N
1499198075.8,286047037.2,N
1499198095.7,286047039.6,N
1499198115.5,286047035.0,N
1499198135.3,286047036.9,N
1499198155.2,286047037.2,N
1499198175.9,286047036.9,N
1499198195.7,286047038.3,N
1499198215.5,286047038.6,N
1499198235.4,286047038.3,N
1499198255.2,286047040.9,N
1499198275.0,286047040.1,N
1499198275.9,286047040.1,N
1499198295.8,286047040.7,N
1499198315.6,286047040.0,N
1499198335.4,286047038.6,N
1499198355.3,286047038.7,N
1499198375.1,286047038.3,N
1499198395.8,286047038.4,N
